TimeEDT,TemperatureF,Dew PointF,Humidity,Sea Level PressureIn,VisibilityMPH,Wind Direction,Wind SpeedMPH,Gust SpeedMPH,PrecipitationIn,Events,Conditions,WindDirDegrees,DateUTC
12:15 AM,69.8,59.0,68,30.03,10.0,SW,4.6,-,N/A,,Overcast,230,2013-05-11 04:15:00
12:35 AM,69.3,59.2,70,30.02,10.0,Calm,Calm,-,N/A,,Overcast,0,2013-05-11 04:35:00
12:55 AM,65.7,60.4,83,30.02,10.0,Calm,Calm,-,N/A,,Overcast,0,2013-05-11 04:55:00
1:15 AM,64.4,61.0,89,30.02,10.0,Calm,Calm,-,N/A,Rain,Light Rain,0,2013-05-11 05:15:00
1:35 AM,66.0,60.4,82,30.01,10.0,Calm,Calm,-,N/A,,Overcast,0,2013-05-11 05:35:00
1:55 AM,67.1,59.9,78,30.00,10.0,Calm,Calm,-,N/A,,Overcast,0,2013-05-11 05:55:00
2:15 AM,65.1,60.8,86,30.00,3.0,West,4.6,-,0.22,Rain,Light Rain,280,2013-05-11 06:15:00
2:35 AM,63.3,61.7,94,29.99,7.0,Calm,Calm,-,0.23,,Overcast,0,2013-05-11 06:35:00
2:55 AM,62.6,62.2,99,29.98,3.0,Calm,Calm,-,0.23,,Overcast,0,2013-05-11 06:55:00
3:15 AM,62.6,62.4,99,29.97,5.0,Calm,Calm,-,N/A,,Overcast,0,2013-05-11 07:15:00
3:35 AM,62.8,62.6,99,29.96,7.0,ESE,3.5,-,N/A,,Overcast,110,2013-05-11 07:35:00
3:55 AM,63.0,62.1,97,29.96,7.0,Calm,Calm,-,N/A,,Overcast,0,2013-05-11 07:55:00
4:15 AM,62.2,62.1,99,29.96,4.0,North,3.5,-,N/A,,Overcast,350,2013-05-11 08:15:00
4:35 AM,62.4,62.1,99,29.96,4.0,Calm,Calm,-,N/A,,Overcast,0,2013-05-11 08:35:00
4:55 AM,61.3,61.2,99,29.95,3.0,Calm,Calm,-,N/A,,Mostly Cloudy,0,2013-05-11 08:55:00
5:15 AM,59.7,59.7,100,29.95,1.0,Calm,Calm,-,N/A,,Mostly Cloudy,0,2013-05-11 09:15:00
5:35 AM,58.8,58.8,100,29.95,2.5,Calm,Calm,-,N/A,,Scattered Clouds,0,2013-05-11 09:35:00
5:55 AM,57.4,57.4,100,29.95,2.0,Calm,Calm,-,N/A,,Scattered Clouds,0,2013-05-11 09:55:00
6:15 AM,56.8,56.8,100,29.95,3.0,NW,3.5,-,N/A,,Clear,310,2013-05-11 10:15:00
6:35 AM,59.9,59.9,100,29.96,2.5,NW,4.6,-,N/A,,Clear,320,2013-05-11 10:35:00
6:55 AM,60.4,60.4,100,29.96,7.0,Calm,Calm,-,N/A,,Clear,0,2013-05-11 10:55:00
7:15 AM,60.6,60.6,100,29.96,7.0,SW,4.6,-,N/A,,Clear,230,2013-05-11 11:15:00
7:35 AM,62.6,59.2,89,29.96,10.0,SW,5.8,-,N/A,,Clear,220,2013-05-11 11:35:00
7:55 AM,63.0,60.1,90,29.96,10.0,Calm,Calm,-,N/A,,Scattered Clouds,0,2013-05-11 11:55:00
8:15 AM,64.0,60.8,89,29.95,10.0,Calm,Calm,-,N/A,,Mostly Cloudy,0,2013-05-11 12:15:00
8:35 AM,65.3,60.6,85,29.97,10.0,Calm,Calm,-,N/A,,Mostly Cloudy,0,2013-05-11 12:35:00
8:55 AM,66.2,60.4,82,29.97,10.0,SW,3.5,-,N/A,,Mostly Cloudy,230,2013-05-11 12:55:00
9:15 AM,67.1,60.1,78,29.97,10.0,West,3.5,-,N/A,,Overcast,260,2013-05-11 13:15:00
9:35 AM,67.1,59.4,76,29.97,10.0,Calm,Calm,-,N/A,,Mostly Cloudy,0,2013-05-11 13:35:00
9:55 AM,69.4,59.2,70,29.96,10.0,WSW,3.5,-,N/A,,Scattered Clouds,240,2013-05-11 13:55:00
10:15 AM,70.9,57.4,62,29.97,10.0,WSW,6.9,-,N/A,,Mostly Cloudy,240,2013-05-11 14:15:00
10:35 AM,69.8,58.8,68,29.97,10.0,West,5.8,-,N/A,,Overcast,280,2013-05-11 14:35:00
10:55 AM,69.6,59.7,71,29.97,10.0,West,3.5,-,N/A,,Overcast,280,2013-05-11 14:55:00
11:15 AM,70.2,58.8,67,29.97,10.0,WNW,3.5,-,N/A,,Overcast,290,2013-05-11 15:15:00
11:35 AM,71.2,55.4,57,29.97,10.0,Calm,Calm,-,N/A,,Overcast,0,2013-05-11 15:35:00
11:55 AM,72.1,55.6,56,29.96,10.0,Calm,Calm,-,N/A,,Scattered Clouds,0,2013-05-11 15:55:00
12:15 PM,72.3,56.8,58,29.96,10.0,Calm,Calm,-,N/A,,Clear,0,2013-05-11 16:15:00
12:35 PM,73.4,56.3,55,29.95,10.0,SW,4.6,-,N/A,,Scattered Clouds,230,2013-05-11 16:35:00
12:55 PM,73.9,56.5,54,29.95,10.0,SW,3.5,-,N/A,,Scattered Clouds,220,2013-05-11 16:55:00
1:15 PM,74.5,57.7,56,29.95,10.0,West,4.6,-,N/A,,Mostly Cloudy,260,2013-05-11 17:15:00
1:35 PM,74.8,57.2,54,29.94,10.0,SW,4.6,-,N/A,,Mostly Cloudy,230,2013-05-11 17:35:00
1:55 PM,75.4,57.4,53,29.94,10.0,WSW,5.8,-,N/A,,Scattered Clouds,240,2013-05-11 17:55:00
2:15 PM,75.7,58.3,55,29.93,10.0,SSW,5.8,-,N/A,,Clear,200,2013-05-11 18:15:00
2:35 PM,75.9,56.8,51,29.93,10.0,SW,5.8,-,N/A,,Scattered Clouds,230,2013-05-11 18:35:00
2:55 PM,72.1,60.8,67,29.92,10.0,SSW,6.9,-,N/A,Rain,Rain,200,2013-05-11 18:55:00
3:15 PM,71.4,61.7,71,29.92,10.0,WSW,5.8,-,N/A,Rain,Light Rain,240,2013-05-11 19:15:00
3:35 PM,74.3,60.1,61,29.90,10.0,SW,3.5,-,N/A,,Scattered Clouds,230,2013-05-11 19:35:00
3:55 PM,75.2,59.5,58,29.90,10.0,West,4.6,-,N/A,,Clear,260,2013-05-11 19:55:00
4:15 PM,75.2,61.2,62,29.89,10.0,West,5.8,-,N/A,,Scattered Clouds,260,2013-05-11 20:15:00
4:35 PM,75.2,61.5,62,29.89,10.0,South,4.6,-,N/A,,Scattered Clouds,190,2013-05-11 20:35:00
4:55 PM,74.5,61.2,63,29.89,10.0,SW,5.8,-,N/A,Rain,Light Rain,230,2013-05-11 20:55:00
5:15 PM,74.1,62.4,67,29.88,10.0,SW,6.9,-,N/A,,Mostly Cloudy,220,2013-05-11 21:15:00
5:35 PM,73.6,61.7,66,29.88,10.0,SW,4.6,-,N/A,,Scattered Clouds,220,2013-05-11 21:35:00
5:55 PM,72.5,63.3,73,29.88,10.0,NNW,6.9,-,N/A,,Scattered Clouds,330,2013-05-11 21:55:00
6:15 PM,64.9,58.3,79,29.90,-9999.0,WNW,10.4,-,0.04,,Unknown,300,2013-05-11 22:15:00
6:35 PM,62.2,60.4,94,29.90,4.0,ESE,5.8,-,0.30,Rain,Rain,120,2013-05-11 22:35:00
6:55 PM,62.1,61.7,99,29.90,7.0,SSE,4.6,-,0.33,Rain,Light Rain,150,2013-05-11 22:55:00
7:15 PM,61.9,61.2,97,29.90,10.0,SSE,4.6,-,N/A,Rain,Rain,150,2013-05-11 23:15:00
7:35 PM,61.7,61.2,98,29.90,10.0,Calm,Calm,-,0.01,Rain,Light Rain,0,2013-05-11 23:35:00
7:55 PM,61.7,61.2,98,29.90,10.0,Calm,Calm,-,0.01,Rain,Light Rain,0,2013-05-11 23:55:00
8:15 PM,61.7,61.2,98,29.90,10.0,Calm,Calm,-,N/A,Rain,Light Rain,0,2013-05-12 00:15:00
8:35 PM,61.7,61.2,98,29.90,10.0,Calm,Calm,-,N/A,,Overcast,0,2013-05-12 00:35:00
8:55 PM,61.2,61.0,99,29.90,10.0,Calm,Calm,-,N/A,,Overcast,0,2013-05-12 00:55:00
9:15 PM,61.3,61.3,100,29.91,10.0,Calm,Calm,-,N/A,,Mostly Cloudy,0,2013-05-12 01:15:00
9:35 PM,61.3,61.3,100,29.92,10.0,Calm,Calm,-,N/A,,Mostly Cloudy,0,2013-05-12 01:35:00
9:55 PM,61.2,61.2,100,29.91,7.0,Calm,Calm,-,N/A,,Light Drizzle,0,2013-05-12 01:55:00
10:15 PM,60.8,60.8,100,29.91,7.0,Calm,Calm,-,N/A,,Scattered Clouds,0,2013-05-12 02:15:00
10:35 PM,60.3,60.3,100,29.92,5.0,South,3.5,-,N/A,,Scattered Clouds,170,2013-05-12 02:35:00
10:55 PM,60.3,60.3,100,29.92,4.0,North,3.5,-,N/A,,Mostly Cloudy,360,2013-05-12 02:55:00
11:15 PM,60.8,60.8,100,29.93,5.0,Calm,Calm,-,N/A,,Mostly Cloudy,0,2013-05-12 03:15:00
11:35 PM,61.0,61.0,100,29.94,0.8,Calm,Calm,-,N/A,,Overcast,0,2013-05-12 03:35:00
11:55 PM,60.8,60.8,100,29.93,5.0,Calm,Calm,-,N/A,,Overcast,0,2013-05-12 03:55:00